Flag for U.S.A. Weather past 2 weeks in Hayward, California, U.S.A.

Now
51 °F

Clear.


Feels Like: 51 °F
Forecast: 47 / 62 °F
Wind: No wind

Location: Hayward Air Terminal

Current Time: Jan 29, 2015 at 10:32:11 PM

Latest Report: Jan 29, 2015 at 9:54 PM


Visibility: 10 mi

Pressure: 30.09 "Hg

Humidity: 86%

Dew point: 47 °F

Location of HaywardLocation

Historic Weather in Hayward — Graph

°F

Hayward temperature yesterday

Maximum temperature yesterday: 66 °F (at 3:54 PM)
Minimum temperature yesterday: 49 °F (at 11:54 PM)
Average temperature yesterday: 56 °F

Past Weeks' High & Low Weather Summary

 TemperatureHumidityPressure
High74 °F (Jan 24, 1:54 PM)97% (Jan 17, 5:54 PM)30.40 "Hg (Jan 17, 5:54 PM)
Low43 °F (Jan 29, 5:54 AM)28% (Jan 24, 1:54 PM)29.99 "Hg (Jan 26, 4:54 PM)
Average55 °F72%30.22 "Hg
* Reported Jan 14 8:54 PM — Jan 29 8:54 PM, Hayward, Weather by CustomWeather, © 2014

Note: Actual official high and low records may vary slightly from our data, if they occured in-between our weather recording intervals... More about our weather records

Advertising

Hayward weather history for previous 24 hours

 ConditionsComfort  
Time TempWeatherWind HumidityBarometerVisibility
8:54 PM
Jan 29
52 °FClear.No wind86%30.10 "Hg10 mi
7:54 PM54 °FClear.No wind93%30.11 "Hg10 mi
6:54 PM53 °FClear.No wind93%30.11 "Hg10 mi
5:54 PM55 °FClear.No wind90%30.09 "Hg10 mi
4:54 PM61 °FSunny.9 mph70%30.09 "Hg10 mi
3:54 PM65 °FSunny.8 mph59%30.09 "Hg10 mi
2:54 PM62 °FSunny.7 mph65%30.10 "Hg8 mi
1:54 PM59 °FSunny.6 mph72%30.11 "Hg6 mi
12:54 PM57 °FSunny.8 mph83%30.13 "Hg6 mi
11:54 AM55 °FSunny.6 mph87%30.16 "Hg7 mi
10:54 AM54 °FSunny.5 mph83%30.19 "Hg8 mi
9:54 AM54 °FSunny.No wind77%30.18 "Hg10 mi
8:54 AM50 °FSunny.3 mph83%30.19 "Hg10 mi
7:54 AM44 °FSunny.No wind93%30.18 "Hg10 mi
6:54 AM46 °FClear.No wind83%30.17 "Hg10 mi
5:54 AM43 °FClear.No wind97%30.16 "Hg10 mi
4:54 AM46 °FClear.3 mph89%30.16 "Hg10 mi
3:54 AM46 °FClear.6 mph93%30.17 "Hg9 mi
2:54 AM46 °FClear.6 mph93%30.18 "Hg10 mi
1:54 AM47 °FClear.5 mph90%30.19 "Hg9 mi
12:54 AM47 °FClear.3 mph93%30.19 "Hg10 mi
11:54 PM
Jan 28
49 °FClear.3 mph86%30.20 "Hg8 mi
10:54 PM50 °FClear.No wind83%30.20 "Hg10 mi
Weather by CustomWeather, © 2014

See weather overviewHow to use our weather pages